Location: *
(48.8667°N, 2.3331°E)
Time: 18:34:23
(UTC+00:00)

STPSAT 2 (USA 217) - Pass Details

Date: 09 April 2020
Orbit: 622 x 646 km, 72.0° (Epoch: 16 May)

Event Time Altitude Azimuth Distance (km) Brightness Sun altitude
Rises 20:26:13 0° 201° (SSW) 2,890 7.9 -17.5°
Reaches altitude 10° 20:28:27 10° 201° (SSW) 1,988 7.0 -17.8°
Maximum altitude 20:32:55 80° 114° (ESE) 640 4.4 -18.4°
Drops below altitude 10° 20:37:25 10° 29° (NNE) 2,010 7.3 -19.0°
Sets 20:39:42 0° 28° (NNE) 2,924 8.2 -19.3°
